SCP
0 0 0 0 0 0 0 0 0 0 0 0 0 0 0 0 0 0 0 0 0 0 0 0 0 0 0 0 0 0 0 0 0 0 0 0 0 0 0 0 0 0 0 0 0
0 0 0 0 0 0 0 0 0 0 0 0 0 0 0 0 0 0 0 0 0 0 0 0 0 0 0 0 0 0 0 0 0 0 0 0 0 1 1 1 0 0 0 0 0
0 0 0 0 0 0 0 0 0 0 0 0 0 0 0 0 0 0 0 0 0 0 0 0 0 0 0 0 0 0 0 0 0 0 0 0 0 0 1 1 0 0 0 0 0
0 0 0 0 0 0 0 0 0 0 0 0 0 0 0 0 0 0 0 0 0 0 0 0 0 0 0 0 0 0 0 0 0 -0 0 0 0 0 1 1 0 0 0 0 0
0 0 0 0 0 0 0 0 0 0 0 0 0 0 0 0 0 0 0 0 0 0 0 0 0 0 0 0 0 0 0 0 0 0 -0 0 0 0 1 0 0 0 0 0 0
0 0 0 0 0 0 0 0 0 0 0 0 0 0 0 0 0 0 0 0 0 0 0 0 0 0 0 0 0 0 0 0 0 0 -0 0 0 0 0 0 0 0 0 0 0
0 0 0 0 0 0 0 0 0 0 0 0 0 0 0 0 0 0 0 0 0 0 0 0 0 0 0 0 0 0 0 0 0 0 0 0 0 0 0 0 0 0 0 0 0
0 0 0 0 0 0 0 0 0 0 0 0 0 0 0 0 0 0 0 0 0 0 0 0 0 0 0 0 0 0 0 0 0 0 0 0 0 0 0 0 0 0 0 0 0
0 0 0 0 0 0 0 0 0 0 0 0 0 0 0 0 0 0 0 0 0 0 0 0 0 0 0 0 0 0 0 -0 0 0 0 0 0 0 0 0 0 0 0 0 0
0 0 0 0 0 0 0 -0 0 0 0 0 0 0 0 0 0 0 0 0 0 0 0 0 0 0 0 0 0 0 0 0 0 0 0 -0 0 0 0 0 0 0 0 0 0
0 0 0 0 0 0 0 0 0 0 0 0 0 0 0 0 0 0 0 0 0 0 0 0 0 0 0 0 0 0 -0 0 0 0 0 0 0 0 0 0 0 0 0 0 0
0 0 0 0 0 0 0 0 0 0 0 0 0 0 0 0 0 0 0 0 0 0 0 0 0 0 0 0 0 0 0 0 0 0 0 -0 0 0 0 0 0 0 0 0 0
0 0 0 0 0 0 0 0 0 0 0 0 0 0 0 0 0 0 0 0 0 0 0 0 0 0 0 0 0 0 0 0 0 -0 -0 -0 -0 0 0 0 0 0 0 0 0
0 0 0 0 0 0 0 0 0 0 0 0 0 0 0 0 0 0 0 0 0 0 0 0 0 0 0 0 0 0 0 -0 -0 -0 -0 0 -0 0 0 0 0 0 0 0 0
0 0 0 0 0 0 0 0 0 0 0 0 0 0 0 0 0 0 0 0 0 0 0 0 0 0 0 0 0 0 0 -0 0 -0 -0 -0 -0 -0 -0 0 0 0 0 0 0
0 0 0 0 0 0 0 0 0 0 0 0 0 0 0 0 0 0 0 0 0 0 0 0 0 0 0 0 0 0 0 0 0 0 0 -0 -0 -0 -0 0 0 0 0 0 0
0 0 0 0 0 0 0 0 0 0 0 0 0 0 0 0 0 0 0 0 0 0 0 -0 0 0 0 0 0 0 0 0 0 0 -0 -0 -0 -0 -0 0 0 0 0 0 0
0 0 0 0 0 0 0 0 0 0 0 0 0 0 0 0 0 0 0 0 0 0 0 0 0 0 0 0 0 0 0 0 0 0 0 0 -0 -0 0 0 0 0 0 0 0
0 0 0 0 0 0 0 0 0 0 0 0 0 0 0 0 0 0 0 0 0 0 0 0 0 0 0 -0 0 0 0 -0 -0 -0 0 0 0 0 0 0 0 0 0 0 0
0 0 0 0 0 0 0 0 0 0 0 0 0 0 0 0 0 0 0 0 0 0 -0 0 0 0 -0 0 0 0 0 -0 -0 0 0 0 0 0 0 -0 0 0 0 0 0
0 0 0 0 0 0 0 0 0 0 0 0 0 0 0 0 0 0 0 0 0 0 -0 0 0 0 -0 0 0 0 0 0 -0 -0 0 0 0 0 0 -0 0 0 0 0 0
0 0 0 0 0 0 0 0 0 0 0 0 0 0 0 0 0 0 0 0 0 0 0 0 0 0 -0 -0 -0 0 0 0 0 -0 0 0 0 -0 0 0 0 0 0 0 0
0 0 0 0 0 0 0 0 0 0 0 0 0 0 0 0 0 0 0 0 -0 0 0 0 0 0 0 0 0 0 0 0 0 0 0 0 0 0 -0 0 0 0 0 0 0
0 0 0 0 0 0 0 0 0 0 0 0 0 0 0 0 0 0 0 0 0 0 -0 0 0 0 0 0 0 0 0 0 0 0 0 0 0 0 0 0 0 0 0 -0 -0
0 0 0 0 0 0 0 0 0 0 0 0 0 0 0 0 0 0 0 0 0 0 0 0 0 0 0 0 -0 0 0 0 0 0 0 0 0 0 0 0 0 0 0 0 0
0 0 0 0 0 0 0 0 0 0 0 0 0 0 0 0 0 0 0 0 0 -0 -0 0 0 0 0 0 -0 0 0 0 0 0 0 0 0 0 0 0 0 0 0 0 0
0 0 0 0 0 0 0 0 0 0 0 0 0 0 0 0 0 0 0 0 0 0 0 0 -0 0 0 0 0 0 0 -0 0 0 0 0 0 -0 0 0 0 0 0 0 0
Wind_Speed_500mb
9 11 12 16 19 21 24 27 30 31 33 36 37 35 32 31 28 16 12 13 22 29 28 32 32 27 26 20 23 23 4 10 9 12 22 58 16 12 20 38 12 20 54 57 70
9 10 12 13 16 18 21 25 28 30 31 33 36 35 34 31 25 18 19 23 31 37 36 34 33 24 19 14 17 18 9 15 16 26 30 48 29 23 17 26 12 28 31 83 81
11 11 11 13 15 17 19 23 24 27 30 33 35 34 32 27 15 14 22 27 33 29 28 27 25 22 11 24 19 10 18 8 35 49 53 43 56 29 40 7 32 56 84 93 86
16 15 17 16 17 19 21 23 24 26 29 31 32 35 28 20 8 19 31 34 25 19 18 17 14 6 7 16 32 23 29 27 47 69 43 29 48 15 29 23 60 69 95 97 93
21 20 19 20 19 20 21 23 24 26 29 31 32 33 33 16 5 19 31 30 6 11 17 11 17 17 18 9 24 35 18 32 40 57 51 50 38 22 6 33 60 79 82 88 92
26 23 21 20 20 22 22 23 24 26 29 31 31 31 24 7 10 28 26 20 12 12 10 10 17 17 25 19 30 24 22 37 41 52 44 38 17 11 11 62 73 87 70 76 82
24 22 21 21 21 22 22 24 25 27 28 29 28 28 18 9 22 20 25 24 17 13 17 21 17 26 8 13 34 23 21 28 54 49 26 27 12 10 31 54 70 67 70 70 70
20 16 18 19 20 21 21 22 24 27 28 25 20 16 12 10 14 25 34 29 7 14 22 22 23 26 30 27 12 9 18 32 35 52 37 26 43 8 50 59 58 63 63 72 72
20 16 15 15 16 17 19 22 23 23 18 16 8 10 8 13 27 47 30 25 23 17 18 22 27 21 17 14 18 15 17 17 20 37 24 19 17 23 42 60 57 54 66 80 73
14 12 12 11 12 13 17 20 13 10 18 10 13 12 3 30 47 27 18 19 24 26 21 19 11 7 6 12 24 24 14 20 23 9 15 27 35 31 49 52 55 55 66 74 72
11 10 9 6 6 9 15 10 9 4 20 5 16 12 26 33 26 21 15 22 15 14 6 20 5 13 22 24 31 17 12 21 13 11 5 16 24 29 48 47 47 46 53 69 68
11 11 8 4 1 7 11 8 11 8 12 11 8 14 17 23 20 27 17 15 18 12 10 9 21 30 17 24 26 31 29 16 6 0 11 8 31 22 34 46 60 61 51 61 64
13 12 10 7 2 6 11 14 11 13 4 4 10 9 13 19 17 15 21 21 12 12 14 13 29 18 20 25 27 26 26 12 2 4 4 7 11 12 28 29 46 47 50 52 68
15 15 14 11 4 5 9 11 9 8 8 9 2 3 11 26 9 30 14 9 7 11 11 15 15 23 25 20 11 25 19 29 9 7 6 4 7 3 25 19 31 48 55 70 68
19 18 16 6 7 2 5 7 7 4 9 11 9 12 29 7 28 6 18 10 11 18 5 13 22 23 28 29 20 14 15 23 16 17 7 8 6 2 15 18 21 40 61 63 74
22 20 17 10 5 3 5 5 2 12 7 8 8 11 15 19 6 17 29 18 27 13 15 29 31 10 22 9 17 11 5 10 10 6 13 21 13 9 12 20 15 29 52 65 73
25 21 14 9 4 4 4 4 10 10 9 14 8 11 15 8 11 11 11 12 6 11 7 27 12 17 17 6 10 4 8 8 12 11 9 33 15 26 18 15 26 20 45 61 77
23 17 11 6 5 6 2 10 11 7 8 5 8 18 6 11 8 14 12 9 11 9 14 8 17 4 5 11 11 13 9 9 7 9 8 20 15 10 6 10 32 54 51 64 73
24 18 11 9 8 5 2 9 13 11 5 4 12 10 9 6 6 12 7 6 5 15 7 8 11 8 9 13 2 9 10 3 11 6 6 9 4 6 2 9 11 46 56 58 65
25 16 12 12 10 5 8 6 4 3 3 7 3 5 6 10 11 12 6 6 11 13 21 7 15 11 3 10 11 13 4 4 1 8 2 5 6 2 9 13 14 32 47 51 60
25 10 12 14 11 3 7 8 4 6 6 4 3 4 7 6 3 6 10 14 7 15 21 13 13 11 5 2 9 3 7 8 7 5 4 5 4 4 12 18 30 33 50 57 63
21 3 15 17 6 4 4 9 3 8 9 4 3 5 8 7 7 6 9 6 14 11 23 9 6 6 14 11 14 8 9 12 5 6 7 5 4 4 7 2 16 31 44 44 55
21 8 14 17 6 4 1 6 5 8 6 7 7 11 9 4 9 8 8 11 34 13 7 8 4 6 19 10 7 2 14 10 8 3 6 0 5 2 7 9 30 43 46 54 55
16 5 6 11 6 9 7 6 5 11 6 9 6 4 3 11 12 11 8 13 37 3 31 21 6 6 8 5 4 9 17 17 6 3 8 3 3 6 6 11 20 39 48 55 62
14 7 9 4 9 8 11 12 4 3 10 10 6 11 8 7 8 9 7 12 11 13 24 9 7 7 10 14 10 10 11 10 5 7 4 7 9 10 3 9 16 39 48 48 55
18 13 11 10 11 12 8 9 14 6 13 7 9 6 9 13 15 12 7 4 9 12 12 13 8 7 9 11 6 14 17 13 12 6 11 12 2 10 6 14 23 41 50 51 60
27 20 11 14 9 8 9 11 13 14 15 12 15 5 11 25 33 35 33 22 17 8 7 6 8 7 7 11 9 13 16 23 9 11 13 15 10 10 0 8 23 38 50 54 61
Wind_Direction_500mb
15 13 16 15 15 12 9 6 4 360 356 354 355 356 354 343 344 343 337 282 271 271 279 274 275 266 249 257 244 255 239 201 243 264 269 278 265 150 124 133 142 170 162 170 163
24 4 2 2 3 3 3 2 360 358 356 354 354 354 353 349 360 47 5 318 285 280 287 288 283 291 251 248 219 189 204 220 194 248 263 289 274 153 131 129 83 121 158 156 160
7 354 342 347 348 350 354 355 356 355 353 354 354 353 354 349 72 25 1 344 331 316 291 286 291 293 255 233 226 244 233 241 264 258 261 284 307 204 147 170 162 148 150 156 163
313 312 317 324 328 333 343 348 348 349 350 352 353 351 2 28 64 4 322 319 329 343 331 303 315 273 243 231 235 257 263 264 261 269 276 279 300 221 163 178 184 171 159 162 168
297 297 299 298 309 319 333 339 342 343 345 348 351 352 356 358 28 304 310 332 320 350 327 287 286 278 250 248 250 252 270 278 287 295 298 279 286 247 99 161 171 159 160 167 171
285 284 290 294 299 310 322 331 335 338 340 343 346 344 349 337 346 317 336 341 304 286 280 298 253 266 293 271 248 282 281 271 287 287 298 275 249 250 126 157 156 158 166 169 174
281 277 276 282 292 302 313 323 330 334 336 337 339 337 342 333 332 335 326 323 320 293 280 266 310 245 304 270 268 245 239 282 272 272 288 268 254 213 154 149 148 160 161 166 176
274 277 272 275 287 298 309 322 329 331 330 331 337 337 301 3 339 328 331 334 313 273 272 281 293 262 249 264 278 226 230 243 264 266 272 239 250 185 169 159 153 162 167 168 172
267 268 275 276 285 299 315 325 328 331 347 0 40 346 319 318 316 322 318 323 340 295 248 256 260 257 262 239 265 240 223 225 257 251 262 260 237 182 180 164 149 163 164 163 159
264 254 263 275 291 313 327 331 322 347 19 5 34 317 276 328 322 333 360 334 314 307 309 265 246 238 262 218 230 235 245 224 226 20 340 281 272 179 187 170 163 163 167 171 174
244 235 243 260 302 332 344 355 354 348 333 303 310 291 309 330 341 350 342 321 312 282 266 287 230 244 240 232 240 284 223 272 207 85 80 304 310 203 191 176 164 162 165 169 182
215 209 209 202 323 359 19 63 58 335 320 352 289 325 336 319 315 331 340 346 334 303 285 310 258 249 259 280 247 238 255 243 275 174 119 324 300 314 211 186 172 165 169 168 178
193 190 176 155 128 43 48 62 33 2 292 305 327 338 341 337 316 319 334 322 284 285 289 260 258 288 203 283 253 241 242 214 308 229 88 307 254 297 236 188 171 171 167 168 178
181 172 163 157 119 67 39 36 16 16 69 317 335 308 353 320 272 321 286 311 306 303 307 265 312 272 254 256 259 264 219 221 199 179 237 168 279 258 300 197 175 167 171 178 182
173 166 162 162 147 166 33 16 3 55 34 284 314 324 336 320 291 283 350 308 252 264 301 257 306 317 310 249 230 254 188 217 191 186 175 156 254 164 184 282 205 179 178 175 182
167 163 169 160 169 82 45 20 56 44 278 339 301 351 355 306 265 280 301 290 267 273 245 260 263 217 241 286 247 270 232 275 198 203 233 188 170 200 191 217 216 189 175 169 174
172 174 174 162 146 86 69 358 37 110 326 306 332 343 328 289 313 19 322 311 289 328 350 317 263 235 211 252 285 147 224 227 215 188 227 165 179 244 210 156 192 198 169 161 171
171 171 172 172 141 120 97 54 77 232 241 319 319 306 299 5 322 336 311 313 282 228 289 260 321 267 217 208 211 201 221 256 220 180 184 152 208 266 171 165 147 184 184 170 176
170 170 177 159 144 145 71 61 196 207 246 16 330 44 320 8 17 352 306 252 289 34 317 307 273 316 240 195 218 261 213 123 310 257 172 169 275 280 134 209 222 180 166 173 179
167 168 174 157 154 162 77 206 184 211 327 79 124 30 316 308 14 23 292 280 337 43 12 299 299 273 316 27 225 226 195 54 77 292 87 55 337 256 206 223 126 160 164 169 175
163 164 174 167 157 103 138 213 220 228 231 145 229 301 277 306 282 280 259 304 9 327 336 264 220 281 343 331 306 244 249 255 160 250 330 121 253 200 197 197 175 170 169 167 173
161 95 171 169 74 43 158 188 207 218 188 240 180 213 227 280 284 278 245 227 353 1 315 254 273 265 227 264 151 256 255 210 151 272 260 248 214 296 264 161 159 156 149 150 172
153 126 168 182 140 194 204 295 250 194 199 196 233 201 213 278 305 239 277 293 326 344 318 342 261 4 339 357 359 218 338 267 288 84 235 300 312 356 279 85 153 149 150 160 170
158 120 157 185 168 146 150 256 285 213 219 219 262 289 306 279 213 272 292 295 316 297 318 303 296 159 192 206 192 299 318 323 254 82 314 265 346 348 17 95 130 149 164 181 179
174 193 174 206 248 173 156 159 174 254 210 211 283 204 201 278 283 241 273 300 298 5 347 17 294 327 263 259 230 251 262 297 290 236 158 302 24 330 292 170 132 150 156 165 176
168 155 162 168 128 131 188 226 193 247 165 247 217 228 216 231 203 260 255 273 264 331 340 338 296 311 293 280 274 273 258 244 239 244 250 285 190 286 338 137 140 151 159 167 181
196 170 168 160 152 122 212 206 208 187 223 208 213 229 265 256 260 265 263 249 258 319 310 317 316 318 281 338 331 296 224 235 236 210 180 225 190 178 256 183 183 173 176 177 188
Wind_Speed_850mb
9 11 12 16 19 21 24 27 30 31 33 36 37 35 32 31 28 16 12 13 22 29 28 32 32 27 26 20 23 23 4 10 9 12 22 58 16 12 20 38 12 20 54 57 70
9 10 12 13 16 18 21 25 28 30 31 33 36 35 34 31 25 18 19 23 31 37 36 34 33 24 19 14 17 18 9 15 16 26 30 48 29 23 17 26 12 28 31 83 81
11 11 11 13 15 17 19 23 24 27 30 33 35 34 32 27 15 14 22 27 33 29 28 27 25 22 11 24 19 10 18 8 35 49 53 43 56 29 40 7 32 56 84 93 86
16 15 17 16 17 19 21 23 24 26 29 31 32 35 28 20 8 19 31 34 25 19 18 17 14 6 7 16 32 23 29 27 47 69 43 29 48 15 29 23 60 69 95 97 93
21 20 19 20 19 20 21 23 24 26 29 31 32 33 33 16 5 19 31 30 6 11 17 11 17 17 18 9 24 35 18 32 40 57 51 50 38 22 6 33 60 79 82 88 92
26 23 21 20 20 22 22 23 24 26 29 31 31 31 24 7 10 28 26 20 12 12 10 10 17 17 25 19 30 24 22 37 41 52 44 38 17 11 11 62 73 87 70 76 82
24 22 21 21 21 22 22 24 25 27 28 29 28 28 18 9 22 20 25 24 17 13 17 21 17 26 8 13 34 23 21 28 54 49 26 27 12 10 31 54 70 67 70 70 70
20 16 18 19 20 21 21 22 24 27 28 25 20 16 12 10 14 25 34 29 7 14 22 22 23 26 30 27 12 9 18 32 35 52 37 26 43 8 50 59 58 63 63 72 72
20 16 15 15 16 17 19 22 23 23 18 16 8 10 8 13 27 47 30 25 23 17 18 22 27 21 17 14 18 15 17 17 20 37 24 19 17 23 42 60 57 54 66 80 73
14 12 12 11 12 13 17 20 13 10 18 10 13 12 3 30 47 27 18 19 24 26 21 19 11 7 6 12 24 24 14 20 23 9 15 27 35 31 49 52 55 55 66 74 72
11 10 9 6 6 9 15 10 9 4 20 5 16 12 26 33 26 21 15 22 15 14 6 20 5 13 22 24 31 17 12 21 13 11 5 16 24 29 48 47 47 46 53 69 68
11 11 8 4 1 7 11 8 11 8 12 11 8 14 17 23 20 27 17 15 18 12 10 9 21 30 17 24 26 31 29 16 6 0 11 8 31 22 34 46 60 61 51 61 64
13 12 10 7 2 6 11 14 11 13 4 4 10 9 13 19 17 15 21 21 12 12 14 13 29 18 20 25 27 26 26 12 2 4 4 7 11 12 28 29 46 47 50 52 68
15 15 14 11 4 5 9 11 9 8 8 9 2 3 11 26 9 30 14 9 7 11 11 15 15 23 25 20 11 25 19 29 9 7 6 4 7 3 25 19 31 48 55 70 68
19 18 16 6 7 2 5 7 7 4 9 11 9 12 29 7 28 6 18 10 11 18 5 13 22 23 28 29 20 14 15 23 16 17 7 8 6 2 15 18 21 40 61 63 74
22 20 17 10 5 3 5 5 2 12 7 8 8 11 15 19 6 17 29 18 27 13 15 29 31 10 22 9 17 11 5 10 10 6 13 21 13 9 12 20 15 29 52 65 73
25 21 14 9 4 4 4 4 10 10 9 14 8 11 15 8 11 11 11 12 6 11 7 27 12 17 17 6 10 4 8 8 12 11 9 33 15 26 18 15 26 20 45 61 77
23 17 11 6 5 6 2 10 11 7 8 5 8 18 6 11 8 14 12 9 11 9 14 8 17 4 5 11 11 13 9 9 7 9 8 20 15 10 6 10 32 54 51 64 73
24 18 11 9 8 5 2 9 13 11 5 4 12 10 9 6 6 12 7 6 5 15 7 8 11 8 9 13 2 9 10 3 11 6 6 9 4 6 2 9 11 46 56 58 65
25 16 12 12 10 5 8 6 4 3 3 7 3 5 6 10 11 12 6 6 11 13 21 7 15 11 3 10 11 13 4 4 1 8 2 5 6 2 9 13 14 32 47 51 60
25 10 12 14 11 3 7 8 4 6 6 4 3 4 7 6 3 6 10 14 7 15 21 13 13 11 5 2 9 3 7 8 7 5 4 5 4 4 12 18 30 33 50 57 63
21 3 15 17 6 4 4 9 3 8 9 4 3 5 8 7 7 6 9 6 14 11 23 9 6 6 14 11 14 8 9 12 5 6 7 5 4 4 7 2 16 31 44 44 55
21 8 14 17 6 4 1 6 5 8 6 7 7 11 9 4 9 8 8 11 34 13 7 8 4 6 19 10 7 2 14 10 8 3 6 0 5 2 7 9 30 43 46 54 55
16 5 6 11 6 9 7 6 5 11 6 9 6 4 3 11 12 11 8 13 37 3 31 21 6 6 8 5 4 9 17 17 6 3 8 3 3 6 6 11 20 39 48 55 62
14 7 9 4 9 8 11 12 4 3 10 10 6 11 8 7 8 9 7 12 11 13 24 9 7 7 10 14 10 10 11 10 5 7 4 7 9 10 3 9 16 39 48 48 55
18 13 11 10 11 12 8 9 14 6 13 7 9 6 9 13 15 12 7 4 9 12 12 13 8 7 9 11 6 14 17 13 12 6 11 12 2 10 6 14 23 41 50 51 60
27 20 11 14 9 8 9 11 13 14 15 12 15 5 11 25 33 35 33 22 17 8 7 6 8 7 7 11 9 13 16 23 9 11 13 15 10 10 0 8 23 38 50 54 61
Wind_Direction_850mb
15 13 16 15 15 12 9 6 4 360 356 354 355 356 354 343 344 343 337 282 271 271 279 274 275 266 249 257 244 255 239 201 243 264 269 278 265 150 124 133 142 170 162 170 163
24 4 2 2 3 3 3 2 360 358 356 354 354 354 353 349 360 47 5 318 285 280 287 288 283 291 251 248 219 189 204 220 194 248 263 289 274 153 131 129 83 121 158 156 160
7 354 342 347 348 350 354 355 356 355 353 354 354 353 354 349 72 25 1 344 331 316 291 286 291 293 255 233 226 244 233 241 264 258 261 284 307 204 147 170 162 148 150 156 163
313 312 317 324 328 333 343 348 348 349 350 352 353 351 2 28 64 4 322 319 329 343 331 303 315 273 243 231 235 257 263 264 261 269 276 279 300 221 163 178 184 171 159 162 168
297 297 299 298 309 319 333 339 342 343 345 348 351 352 356 358 28 304 310 332 320 350 327 287 286 278 250 248 250 252 270 278 287 295 298 279 286 247 99 161 171 159 160 167 171
285 284 290 294 299 310 322 331 335 338 340 343 346 344 349 337 346 317 336 341 304 286 280 298 253 266 293 271 248 282 281 271 287 287 298 275 249 250 126 157 156 158 166 169 174
281 277 276 282 292 302 313 323 330 334 336 337 339 337 342 333 332 335 326 323 320 293 280 266 310 245 304 270 268 245 239 282 272 272 288 268 254 213 154 149 148 160 161 166 176
274 277 272 275 287 298 309 322 329 331 330 331 337 337 301 3 339 328 331 334 313 273 272 281 293 262 249 264 278 226 230 243 264 266 272 239 250 185 169 159 153 162 167 168 172
267 268 275 276 285 299 315 325 328 331 347 0 40 346 319 318 316 322 318 323 340 295 248 256 260 257 262 239 265 240 223 225 257 251 262 260 237 182 180 164 149 163 164 163 159
264 254 263 275 291 313 327 331 322 347 19 5 34 317 276 328 322 333 360 334 314 307 309 265 246 238 262 218 230 235 245 224 226 20 340 281 272 179 187 170 163 163 167 171 174
244 235 243 260 302 332 344 355 354 348 333 303 310 291 309 330 341 350 342 321 312 282 266 287 230 244 240 232 240 284 223 272 207 85 80 304 310 203 191 176 164 162 165 169 182
215 209 209 202 323 359 19 63 58 335 320 352 289 325 336 319 315 331 340 346 334 303 285 310 258 249 259 280 247 238 255 243 275 174 119 324 300 314 211 186 172 165 169 168 178
193 190 176 155 128 43 48 62 33 2 292 305 327 338 341 337 316 319 334 322 284 285 289 260 258 288 203 283 253 241 242 214 308 229 88 307 254 297 236 188 171 171 167 168 178
181 172 163 157 119 67 39 36 16 16 69 317 335 308 353 320 272 321 286 311 306 303 307 265 312 272 254 256 259 264 219 221 199 179 237 168 279 258 300 197 175 167 171 178 182
173 166 162 162 147 166 33 16 3 55 34 284 314 324 336 320 291 283 350 308 252 264 301 257 306 317 310 249 230 254 188 217 191 186 175 156 254 164 184 282 205 179 178 175 182
167 163 169 160 169 82 45 20 56 44 278 339 301 351 355 306 265 280 301 290 267 273 245 260 263 217 241 286 247 270 232 275 198 203 233 188 170 200 191 217 216 189 175 169 174
172 174 174 162 146 86 69 358 37 110 326 306 332 343 328 289 313 19 322 311 289 328 350 317 263 235 211 252 285 147 224 227 215 188 227 165 179 244 210 156 192 198 169 161 171
171 171 172 172 141 120 97 54 77 232 241 319 319 306 299 5 322 336 311 313 282 228 289 260 321 267 217 208 211 201 221 256 220 180 184 152 208 266 171 165 147 184 184 170 176
170 170 177 159 144 145 71 61 196 207 246 16 330 44 320 8 17 352 306 252 289 34 317 307 273 316 240 195 218 261 213 123 310 257 172 169 275 280 134 209 222 180 166 173 179
167 168 174 157 154 162 77 206 184 211 327 79 124 30 316 308 14 23 292 280 337 43 12 299 299 273 316 27 225 226 195 54 77 292 87 55 337 256 206 223 126 160 164 169 175
163 164 174 167 157 103 138 213 220 228 231 145 229 301 277 306 282 280 259 304 9 327 336 264 220 281 343 331 306 244 249 255 160 250 330 121 253 200 197 197 175 170 169 167 173
161 95 171 169 74 43 158 188 207 218 188 240 180 213 227 280 284 278 245 227 353 1 315 254 273 265 227 264 151 256 255 210 151 272 260 248 214 296 264 161 159 156 149 150 172
153 126 168 182 140 194 204 295 250 194 199 196 233 201 213 278 305 239 277 293 326 344 318 342 261 4 339 357 359 218 338 267 288 84 235 300 312 356 279 85 153 149 150 160 170
158 120 157 185 168 146 150 256 285 213 219 219 262 289 306 279 213 272 292 295 316 297 318 303 296 159 192 206 192 299 318 323 254 82 314 265 346 348 17 95 130 149 164 181 179
174 193 174 206 248 173 156 159 174 254 210 211 283 204 201 278 283 241 273 300 298 5 347 17 294 327 263 259 230 251 262 297 290 236 158 302 24 330 292 170 132 150 156 165 176
168 155 162 168 128 131 188 226 193 247 165 247 217 228 216 231 203 260 255 273 264 331 340 338 296 311 293 280 274 273 258 244 239 244 250 285 190 286 338 137 140 151 159 167 181
196 170 168 160 152 122 212 206 208 187 223 208 213 229 265 256 260 265 263 249 258 319 310 317 316 318 281 338 331 296 224 235 236 210 180 225 190 178 256 183 183 173 176 177 188